This demonstration page uses our WeatherBlox Daily Observations layout. Learn more.

Left ArrowRight Arrow

Hourly Observations for September 19, 2020

Temp ( °F °C ) Dew Point ( °F °C ) Humidity (%) Winds ( mph kmh ) Pressure ( in mb ) Visibility ( mi km ) Precip ( " mm )
12:59 am 00:59 Mostly Cloudy 69 20.6 54 12.2 59 59 NNE 18 30 30.07 1018 9 14 0.00 0.00
1:59 am 01:59 Mostly Cloudy 68 20 53 11.7 59 59 NE 21 33 30.09 1019 10 16 0.00 0.00
2:59 am 02:59 Mostly Cloudy 67 19.4 53 11.7 61 61 NNE 18 30 30.11 1020 10 16 0.00 0.00
3:59 am 03:59 Mostly Cloudy 66 18.9 49 9.4 54 54 NNE 17 28 30.12 1020 10 16 0.00 0.00
4:59 am 04:59 Mostly Cloudy 64 17.8 49 9.4 58 58 NNE 21 33 30.14 1021 10 16 0.00 0.00
5:59 am 05:59 Mostly Cloudy 63 17.2 48 8.9 58 58 NNE 23 37 30.16 1022 10 16 0.00 0.00
6:59 am 06:59 Mostly Cloudy 62 16.7 49 9.4 62 62 NNE 18 30 30.19 1022 10 16 0.00 0.00
7:59 am 07:59 Mostly Cloudy 62 16.7 50 10 65 65 NNE 18 30 30.21 1023 10 16 0.00 0.00
8:33 am 08:33 Mostly Cloudy 62 16.7 50 10 65 65 NNE 18 30 30.22 1023 10 16 0.00 0.00
8:59 am 08:59 Mostly Cloudy 63 17.2 51 10.6 65 65 NNE 17 28 30.22 1024 10 16 0.00 0.00
9:59 am 09:59 Mostly Cloudy 64 17.8 50 10 60 60 NNE 22 35 30.24 1024 10 16 0.00 0.00
10:20 am 10:20 Mostly Cloudy 63 17.2 50 10 63 63 NNE 20 31 30.26 1025 10 16 0.00 0.00
10:59 am 10:59 Mostly Cloudy 64 17.8 51 10.6 63 63 N 18 30 30.27 1025 10 16 0.00 0.00
11:25 am 11:25 Mostly Cloudy 64 17.8 50 10 60 60 N 17 28 30.28 1025 10 16 0.00 0.00
11:59 am 11:59 Mostly Cloudy 65 18.3 51 10.6 61 61 NNE 17 28 30.27 1025 10 16 0.00 0.00
12:59 pm 12:59 Mostly Cloudy 65 18.3 51 10.6 61 61 N 14 22 30.27 1025 10 16 0.00 0.00
1:59 pm 13:59 Mostly Cloudy 66 18.9 51 10.6 59 59 N 17 28 30.27 1025 10 16 0.00 0.00
2:59 pm 14:59 Mostly Cloudy 64 17.8 48 8.9 56 56 N 16 26 30.27 1025 10 16 0.00 0.00
3:59 pm 15:59 Mostly Cloudy 65 18.3 46 7.8 51 51 N 20 31 30.28 1025 10 16 0.00 0.00
4:59 pm 16:59 Mostly Cloudy 64 17.8 46 7.8 52 52 N 17 28 30.27 1025 10 16 0.00 0.00
5:59 pm 17:59 Cloudy 63 17.2 45 7.2 52 52 NNE 14 22 30.28 1025 10 16 0.00 0.00
6:59 pm 18:59 Mostly Cloudy 63 17.2 47 8.3 56 56 NNE 18 30 30.28 1025 10 16 0.00 0.00
7:59 pm 19:59 Cloudy 63 17.2 49 9.4 60 60 NE 16 26 30.28 1025 10 16 0.00 0.00
8:59 pm 20:59 Cloudy 63 17.2 49 9.4 60 60 NNE 20 31 30.29 1026 10 16 0.00 0.00
9:59 pm 21:59 Mostly Cloudy 63 17.2 49 9.4 60 60 NNE 21 33 30.29 1026 10 16 0.00 0.00
10:59 pm 22:59 Mostly Cloudy 63 17.2 50 10 63 63 NNE 20 31 30.30 1026 10 16 0.00 0.00
11:59 pm 23:59 Cloudy 63 17.2 49 9.4 60 60 NNE 17 28 30.30 1026 10 16 0.00 0.00

Powered by AerisWeather